Regional Weather Roundup
Issued by NWS

Home | Current Version | Previous Version | Graphics & Text | Print | Product List | Glossary On
Versions: 1 2 3 4 5 6 7 8 9 10 11 12 13 14 15 16 17 18 19 20 21 22 23 24 25 26 27 28 29 30 31 32 33 34 35 36 37 38 39 40 41 42 43 44 45 46 47 48 49 50
000
ASUS45 KSLC 211310
RWRUT

UTAH REGIONAL WEATHER ROUNDUP
NATIONAL WEATHER SERVICE SALT LAKE CITY UT
600 AM MST FRI NOV 21 2014

UTZ001>011-023>025-211400-

NORTHERN UTAH

CITY           SKY/WX    TMP DP  RH WIND       PRES   REMARKS
BRIGHAM CITY   PTCLDY    25  21  83 CALM      30.03F
HILL AFB       CLEAR     32  19  58 SE21G28   30.01S WCI  20
LOGAN          CLEAR     22  19  89 E6        30.04F WCI  14
OGDEN          CLEAR     30  21  69 S6        30.01S WCI  24
PROVO AIRPORT  PTCLDY    21  18  86 NE5       30.04S WCI  15
SALT LAKE CITY PTCLDY    26  21  81 SE7       30.01F WCI  18
VERNAL         PTCLDY    20  10  65 W7        30.07R WCI  11
WENDOVER       PTCLDY    21  14  73 W3        30.02S
HEBER CITY     CLEAR     18  12  79 CALM      30.06S
WEST JORDAN    CLEAR     28  21  74 S3        30.02F

$$

UTZ012>022-026-027-211400-

SOUTHERN/CENTRAL UTAH

CITY           SKY/WX    TMP DP  RH WIND       PRES   REMARKS
BLANDING       CLOUDY    32  17  54 N3        30.11R
BRYCE CANYON   PTCLDY    19  14  81 CALM      30.04S
CEDAR CITY     PTCLDY    27  22  81 E5        29.98S WCI  22
DELTA          CLOUDY    29  20  69 CALM      30.00S
MILFORD        MOCLDY    27  21  78 CALM      29.99R
MOAB/CYNLANDS  CLEAR     21   9  59 W3        30.05F
PRICE          PTCLDY    24  12  60 CALM      30.04S
ST GEORGE      SUNNY     39  16  38 CALM      29.99R
KANAB          PTCLDY    34  16  47 NW15      30.02S WCI  24

$$

REGIONAL REPORTS     COLORADO/ARIZONA

CITY           SKY/WX    TMP DP  RH WIND       PRES   REMARKS
CRAIG, CO      CLEAR     17  13  84 W3        30.06R
GRAND JUNCTION CLEAR     20  14  77 E5        30.07R WCI  13
RIFLE          CLEAR     22  17  81 E3        30.09R
MONTROSE       CLEAR     20  16  84 S7        30.10R WCI  11
CORTEZ         CLEAR     22  19  89 CALM      30.06R
PAGE, AZ       NOT AVBL
GRAND CANYON   CLOUDY    28  16  60 E5        30.01F WCI  23
KINGMAN        CLOUDY    43  17  35 SE12      29.93S
FLAGSTAFF      CLOUDY    28  16  60 CALM      30.01R

$$

REGIONAL REPORTS    NEVADA/IDAHO/WYOMING

CITY           SKY/WX    TMP DP  RH WIND       PRES   REMARKS
LAS VEGAS, NV  MOCLDY    52  21  29 S6        29.88S
ELY            CLEAR     20  12  71 S6        30.01S WCI  12
ELKO           CLEAR     25  21  85 CALM      30.00R
POCATELLO, ID  CLEAR     20  20 100 CALM      30.03S FOG
BURLEY         PTCLDY    23  20  88 N3        30.01S
EVANSTON, WY   PTCLDY    24  12  60 S3        30.03S
ROCK SPRINGS   PTCLDY    22  14  71 W12       30.02S WCI  10

$$


USA.gov is the U.S. government's official web portal to all federal, state and local government web resources and services.